Glen Allen, Alabama
Current Conditions -  °F | °C
As of 10:15 PM on Thursday 27 Nov 2014 (Local Time) from KJFX Reporting Station
Clear Clear  
Wind Chill: 32°   Ceiling: Unl
Heat Index: 32°   Visibility: 10mi
Dew Point: 28°   Wind: 0mph
Humidity: 87%   Direction: NA
Pressure: 30.48"   Gusts: NA
Location:  33.88°N, 87.74°W
Report Text: KJFX 280415Z AUTO 00000KT 10SM CLR 00/M02 A3048 RMK A02 P-128
Loading
Personal Weather Stations






























Interactive Weather Map New forecast layout! Learn more

10-Day Weather Forecast

Advertisements
Track Severe Weather on mobile